Temp
13 13 12 12 12 12 11 11 11 11 11 11 11 10 10 10 9 9 9 9 10 10 10 10 10 10 10 10 10 10 10 10 10 10 9 9 9 9 9 9 9 9 9 9 9 8 8 8 8 8 8 8 8 8 8 9 9 9 9 9 9 9 9 9 9 8 8 7 6
13 12 12 12 12 11 11 11 11 10 10 10 10 10 10 10 9 9 9 9 9 10 10 10 10 10 10 10 10 10 10 10 10 10 9 9 9 9 9 9 9 9 9 9 9 9 8 8 8 8 8 8 8 8 8 9 9 9 9 9 9 9 9 9 9 9 8 8 7
12 12 12 11 11 11 11 10 10 10 10 10 10 10 10 9 9 9 9 9 9 9 9 9 10 10 10 9 9 9 9 9 9 9 9 9 9 9 9 9 9 9 9 9 9 9 8 8 8 8 8 8 8 8 8 8 9 8 8 9 9 9 9 9 9 9 8 8 8
12 12 11 11 11 10 10 10 10 10 10 10 10 10 9 9 9 9 9 9 9 9 9 9 9 9 9 9 9 9 9 9 9 9 9 9 9 9 9 9 9 9 9 9 9 9 8 8 8 8 8 8 8 8 8 8 8 8 8 8 8 8 8 8 8 8 8 8 8
11 11 11 11 10 10 10 10 10 10 10 10 9 9 9 9 9 9 8 8 8 9 9 9 9 9 9 9 9 9 9 9 9 9 9 9 9 9 9 9 9 9 9 9 9 8 8 8 8 8 8 8 8 8 8 8 8 8 8 8 8 8 8 8 8 8 8 8 8
11 11 10 10 10 10 9 9 9 9 9 9 9 9 9 8 8 8 8 8 8 8 8 8 8 8 8 8 9 9 9 9 9 9 9 9 9 9 9 9 9 9 9 9 8 8 8 8 8 8 8 8 8 8 8 8 8 8 8 8 8 8 7 7 7 7 7 7 7
10 10 10 10 9 9 9 9 9 9 9 9 9 9 8 8 8 8 8 8 8 8 8 8 8 8 8 8 8 9 9 9 9 9 9 9 9 9 9 9 8 8 9 8 8 8 8 8 8 8 8 8 8 8 8 8 8 8 8 8 8 7 7 7 7 7 7 7 7
10 9 9 9 9 9 8 8 8 8 8 8 8 8 8 8 8 8 7 7 7 7 8 8 8 8 8 8 8 9 9 9 9 9 9 9 9 9 9 9 8 8 8 8 8 8 8 8 8 8 8 8 8 8 8 8 8 8 8 8 8 8 7 7 7 7 6 6 6
9 9 9 8 8 8 8 8 8 8 8 8 8 8 8 7 7 7 7 7 7 7 7 7 8 8 8 8 8 9 9 9 9 9 9 9 9 9 9 9 8 8 8 8 8 8 8 8 8 8 8 8 8 8 8 8 8 8 8 8 8 8 8 7 7 7 7 7 6
8 8 8 8 8 8 8 8 8 8 8 8 7 7 7 7 7 7 7 7 7 7 7 7 7 7 8 8 8 8 9 9 9 9 9 9 9 9 9 8 8 8 8 8 8 8 8 8 8 8 8 8 8 8 7 7 7 7 7 7 8 8 8 8 8 8 8 7 7
8 8 8 8 8 7 8 8 8 8 7 7 7 7 7 7 7 7 7 7 7 7 7 7 7 7 7 8 8 8 8 8 9 9 9 9 9 8 8 8 8 8 8 8 8 8 8 8 8 8 8 8 8 8 8 7 7 7 7 7 7 7 8 8 8 8 8 8 7
7 7 7 7 7 7 7 8 8 7 7 7 7 7 7 6 6 6 6 6 6 7 7 7 7 7 7 7 7 8 8 8 8 8 8 8 8 8 8 8 8 8 8 8 8 8 8 8 8 8 8 8 8 8 8 8 8 8 7 7 7 7 7 7 7 7 7 7 7
7 7 7 7 7 7 7 7 7 7 7 7 7 6 6 6 6 6 6 6 6 6 6 6 6 7 7 7 7 7 7 7 8 8 8 8 8 8 8 8 8 8 8 7 7 7 7 7 8 8 8 8 8 7 7 7 8 8 8 8 7 7 7 7 7 7 7 7 7
7 7 7 7 7 7 7 7 7 7 7 7 6 6 6 6 6 6 6 6 6 6 6 6 6 6 6 7 7 7 7 7 7 7 7 7 7 7 7 7 7 7 7 7 7 7 7 7 7 7 7 8 7 7 7 7 7 7 7 7 7 7 7 6 6 6 6 6 6
7 7 7 7 7 7 7 7 7 7 7 6 6 6 6 6 6 6 6 6 6 6 6 6 6 6 6 6 7 7 7 7 7 7 7 7 7 7 7 7 7 7 7 7 7 7 7 7 7 7 7 7 7 7 7 7 7 7 7 7 7 7 7 6 6 6 5 5 6
6 6 7 7 7 7 7 7 7 6 6 6 6 6 6 6 6 6 6 6 6 6 6 6 6 6 6 6 7 7 7 7 7 7 7 7 7 7 7 7 7 7 7 7 7 7 7 7 7 7 7 7 7 7 7 7 7 7 7 7 7 7 7 6 6 6 5 5 5
6 6 6 7 7 7 7 6 6 6 6 6 6 6 6 6 6 6 6 6 6 6 6 6 6 6 6 6 7 7 7 7 7 7 7 7 7 7 7 7 7 7 7 7 7 7 7 7 7 7 7 7 7 7 7 7 7 7 7 7 7 7 6 6 6 6 5 5 5
6 6 6 6 6 6 6 6 6 6 6 6 6 6 6 6 6 6 6 6 6 6 6 6 6 6 6 6 6 6 6 6 6 6 6 6 6 6 6 6 6 6 6 7 7 7 7 7 7 7 7 7 6 6 6 6 6 6 6 6 6 6 6 6 6 6 5 5 5
6 6 6 6 6 6 6 6 6 6 6 6 5 5 5 6 6 6 6 6 6 6 6 6 6 6 6 6 6 6 6 6 6 6 6 6 6 6 6 6 6 6 6 6 6 6 6 6 6 6 6 6 6 6 6 6 6 6 6 6 6 6 6 6 6 6 5 5 5
6 6 6 6 6 6 6 6 6 5 5 5 5 5 5 5 5 6 6 6 6 6 6 6 6 6 6 6 6 6 6 6 6 6 6 6 6 6 6 6 6 6 6 6 6 6 6 6 6 6 6 6 6 6 6 6 6 6 6 5 5 5 5 5 5 5 5 5 5
6 6 5 5 5 5 5 5 5 5 5 5 5 5 5 5 5 5 5 5 5 5 5 5 6 6 6 6 6 6 6 6 6 6 6 6 6 6 6 6 6 6 6 6 6 6 6 6 6 5 5 5 5 5 5 5 5 5 5 5 5 5 5 5 5 5 5 5 5
5 5 5 5 5 5 5 5 5 5 5 5 5 5 5 5 5 5 5 5 5 5 5 5 5 5 5 5 5 6 6 6 6 6 6 6 6 6 6 6 6 6 6 6 6 6 6 6 5 5 5 5 5 4 4 4 5 5 5 5 5 5 5 5 5 5 5 5 5
5 5 5 4 4 4 4 4 4 4 4 5 5 5 5 5 5 5 5 5 5 5 5 5 5 5 5 5 5 5 5 5 5 5 5 5 6 6 6 6 6 6 6 6 6 6 6 5 5 5 4 4 4 4 4 4 4 4 5 5 5 5 5 5 5 5 5 5 5
4 4 4 4 4 4 4 4 4 4 4 4 5 5 5 5 5 5 5 5 5 5 5 5 5 5 5 5 5 5 5 5 5 5 6 6 6 6 6 6 6 6 6 6 6 5 5 5 4 4 4 4 4 4 4 4 4 4 4 5 5 5 5 5 5 5 5 5 5
4 4 4 4 4 4 4 4 4 4 4 4 4 4 4 4 4 4 4 4 4 4 4 4 4 5 5 5 5 5 5 5 5 5 5 5 5 6 6 6 6 6 6 6 6 5 5 4 4 4 4 4 4 4 4 4 4 4 4 5 5 5 5 6 6 6 5 5 5
4 3 3 3 3 3 3 4 4 4 4 4 4 4 4 4 4 4 4 4 4 4 4 4 4 4 4 4 5 5 5 5 5 5 5 5 5 5 5 5 5 5 5 5 5 5 5 5 4 4 4 3 4 4 4 5 5 5 5 5 5 5 5 5 6 6 6 5 5
4 3 3 3 3 3 3 3 3 3 3 3 4 4 3 3 3 3 3 3 3 4 4 4 4 4 4 4 4 4 4 4 4 4 4 5 5 5 5 5 5 5 5 5 5 5 5 5 5 4 4 3 3 4 4 5 5 5 5 5 5 5 5 5 5 5 6 6 5
4 4 4 4 3 3 3 3 3 3 3 3 3 3 3 3 3 3 3 3 3 3 4 4 4 4 4 4 4 4 4 4 4 4 4 4 4 4 4 5 5 5 5 5 5 5 5 4 4 4 4 3 3 3 4 4 5 5 5 5 5 5 5 5 5 5 5 5 5
4 4 4 4 4 3 3 3 3 3 3 3 3 3 3 3 3 3 3 3 3 3 3 3 3 3 3 4 4 4 4 4 4 4 4 4 4 4 4 4 4 4 4 4 4 4 4 4 4 4 4 3 3 3 3 4 4 4 5 5 5 5 5 5 5 5 5 5 5
3 3 4 4 4 3 3 3 3 3 3 3 3 3 3 3 3 3 3 3 3 3 3 3 3 3 3 3 3 3 3 3 3 3 3 3 3 4 4 4 4 4 4 4 4 4 4 4 4 4 3 3 3 3 3 3 3 4 4 4 5 5 5 5 5 5 5 5 4
3 3 3 3 3 3 3 3 3 3 3 3 3 3 3 3 3 3 2 2 2 2 2 3 3 3 3 3 3 3 3 3 3 3 3 3 3 3 3 4 4 4 4 4 4 4 3 3 3 3 3 3 3 3 3 3 3 3 3 4 4 4 5 5 5 5 5 4 4
3 3 3 3 3 3 3 3 3 3 3 3 3 3 3 3 3 2 2 2 2 2 2 2 2 2 2 2 3 3 3 3 3 3 3 3 3 3 3 3 4 4 4 4 4 3 3 3 3 3 3 2 2 2 2 2 3 3 3 3 4 4 4 4 4 4 4 4 4
3 3 3 3 3 3 3 3 3 3 3 3 3 3 3 3 2 2 2 2 2 2 2 2 2 2 2 2 2 2 2 2 2 2 2 2 2 2 3 3 3 3 4 3 3 3 3 3 3 2 2 2 2 2 2 2 2 3 3 3 4 4 4 4 4 4 4 4 4
3 3 3 3 3 3 3 3 3 3 3 3 3 2 2 2 2 2 2 2 2 2 2 2 2 2 2 1 1 2 2 2 2 2 2 2 2 2 2 3 3 3 3 3 3 3 3 2 2 2 2 2 2 2 2 2 2 3 3 3 3 4 4 4 4 4 4 4 3
3 3 3 3 3 3 3 3 3 3 2 2 2 2 2 2 2 2 2 2 2 1 1 1 1 1 1 1 1 1 1 1 2 2 2 2 2 2 2 2 3 3 3 3 3 3 3 2 2 2 2 1 1 2 2 2 2 2 2 3 3 3 4 4 4 4 4 3 3
3 3 3 3 3 3 3 3 2 2 2 2 2 2 2 2 2 2 1 1 1 1 1 1 1 1 1 1 1 1 1 1 1 1 1 1 1 2 2 2 2 3 3 3 3 3 2 2 2 2 1 1 1 1 1 1 2 2 2 2 3 3 3 3 3 3 3 3 3
3 3 3 3 3 3 3 2 2 2 2 2 2 2 2 2 1 1 1 1 1 1 1 1 1 1 1 1 1 1 1 1 1 1 1 1 1 1 2 2 2 2 3 3 3 2 2 2 2 2 1 1 1 1 1 1 1 1 1 2 2 2 3 3 3 3 3 3 3
3 3 3 3 3 3 2 2 2 2 2 2 2 2 2 1 1 1 1 1 1 1 1 1 1 1 1 0 1 1 1 1 1 1 1 1 1 1 1 2 2 2 2 2 2 2 2 2 2 2 1 1 1 1 1 1 1 1 1 1 2 2 2 2 2 3 3 3 3
3 3 3 2 2 2 2 2 2 2 2 2 1 1 1 1 1 1 1 1 1 0 0 0 0 0 0 0 0 0 1 1 1 1 1 1 1 1 1 1 2 2 2 2 2 2 2 2 2 2 1 1 1 0 0 0 0 0 0 1 1 1 2 2 2 2 2 3 3
2 2 2 2 2 2 2 2 2 1 1 1 1 1 1 1 1 1 1 0 0 0 0 0 0 0 0 0 0 0 1 1 1 1 1 1 1 1 1 1 2 2 2 2 2 2 2 2 2 2 1 1 0 0 0 -0 -0 -0 0 0 0 1 1 1 1 1 2 2 3
2 2 2 2 2 2 1 1 1 1 1 1 1 1 1 1 1 0 0 0 0 0 -0 -0 -0 -0 -0 -0 -0 0 0 1 1 1 1 1 1 1 1 1 2 2 2 2 2 2 2 2 2 2 1 1 0 0 -0 -0 -0 -0 -0 0 0 0 0 0 1 1 1 1 2
Height
813 814 814 814 815 815 815 816 816 816 816 816 816 816 817 817 817 817 818 818 817 817 817 817 816 816 816 815 815 815 815 815 815 815 815 814 814 814 814 813 813 813 812 812 811 810 810 809 808 807 806 806 805 804 803 802 801 801 800 799 798 797 796 794 793 792 791 790 789
813 813 813 814 814 814 815 815 815 815 815 815 815 816 816 816 817 817 817 817 817 817 817 816 816 815 815 815 814 814 814 814 814 814 814 814 814 813 813 813 813 812 812 811 811 810 809 809 808 807 806 805 805 804 803 802 801 800 799 799 798 797 796 795 794 793 792 790 789
812 812 813 813 813 814 814 814 814 814 814 814 814 815 815 816 816 816 816 817 817 816 816 816 815 815 815 814 814 814 813 813 813 813 813 813 813 813 813 813 812 812 811 811 810 810 809 808 808 807 806 805 804 803 803 802 801 800 799 798 798 797 796 795 794 793 792 791 789
811 812 812 813 813 813 813 813 813 813 813 813 814 814 814 815 815 816 816 816 816 816 816 815 815 814 814 814 813 813 813 813 813 813 813 813 812 812 812 812 812 811 811 810 810 809 809 808 808 807 806 805 804 803 803 802 801 800 799 798 798 797 796 795 794 793 793 791 790
811 811 812 812 812 813 813 813 813 813 813 813 813 813 814 814 814 815 815 816 816 815 815 815 814 814 813 813 813 813 812 812 812 812 812 812 812 812 811 811 811 811 810 810 810 809 808 808 808 807 806 805 804 803 803 802 801 800 799 798 797 796 796 795 794 793 793 792 791
810 811 811 811 812 812 812 812 813 813 812 813 813 813 813 813 814 815 815 815 815 815 815 814 814 813 813 813 812 812 812 811 811 811 811 811 811 811 811 811 810 810 810 809 809 809 808 808 807 807 806 805 804 804 803 802 801 800 799 798 798 797 796 795 794 793 793 792 791
810 810 811 811 811 812 812 812 812 812 812 812 812 812 813 813 814 814 815 815 815 815 814 814 813 813 813 812 812 812 811 811 811 810 810 810 810 810 810 810 810 809 809 809 808 808 808 807 807 806 805 805 804 803 803 802 801 800 799 798 798 797 796 795 794 793 792 792 791
809 810 810 811 811 811 811 812 812 812 812 812 812 813 813 814 814 814 815 814 814 814 814 814 813 813 813 812 812 811 811 810 810 810 810 810 809 809 809 809 809 809 808 808 808 808 807 807 806 805 805 804 804 803 803 802 801 800 799 798 798 797 797 795 794 793 793 792 791
809 810 810 811 811 811 811 811 811 812 812 812 813 813 813 814 814 815 815 814 814 814 814 813 813 813 812 812 811 811 810 810 810 809 809 809 809 809 808 808 808 808 808 808 807 807 806 806 805 805 804 804 803 803 802 801 801 800 799 798 798 797 797 796 795 794 793 792 791
809 810 810 810 811 811 811 811 811 812 812 813 813 813 814 815 815 815 815 815 814 814 814 813 813 813 812 812 811 811 810 810 809 809 809 808 808 808 808 808 807 807 807 807 806 806 806 805 805 804 804 803 803 802 801 801 800 799 799 798 798 797 796 796 795 794 793 792 791
809 810 810 810 811 810 810 811 811 812 812 813 813 814 814 815 815 815 815 815 814 814 814 813 813 813 812 812 811 810 810 809 809 809 808 808 808 807 807 807 807 806 806 806 805 805 805 804 804 803 803 803 802 801 801 800 799 799 798 798 797 797 796 795 795 794 793 792 791
809 810 810 810 810 810 810 810 811 811 812 813 813 814 815 815 815 815 815 815 814 814 814 813 813 813 812 812 811 810 810 809 809 808 808 808 807 807 807 806 806 806 805 805 805 804 804 803 803 803 802 802 801 801 800 799 799 798 798 797 797 796 796 795 794 793 793 792 791
809 809 810 810 810 809 809 809 810 811 812 813 813 814 815 815 815 815 815 814 814 814 814 813 813 813 812 812 811 810 810 809 809 808 808 807 807 807 806 806 805 805 805 804 804 804 803 803 803 802 802 801 801 800 799 799 798 798 797 797 796 796 795 794 794 793 793 792 791
808 809 809 809 809 809 809 809 810 811 812 813 813 814 814 814 814 814 814 814 814 813 813 813 813 813 812 812 811 810 810 809 808 808 808 807 807 806 806 805 805 804 804 804 803 803 803 802 802 801 801 800 800 799 799 798 798 797 797 796 796 795 795 794 793 793 792 791 791
808 808 808 808 808 808 808 809 810 811 812 813 813 814 814 814 814 814 814 813 813 813 813 813 813 812 812 811 811 810 809 809 808 808 807 807 806 806 805 805 804 804 803 803 803 802 802 801 801 800 800 800 799 799 798 798 797 797 796 796 795 795 794 794 793 793 792 791 790
807 807 807 807 808 808 808 809 810 811 812 813 813 813 813 813 813 813 813 813 813 813 813 812 812 812 811 811 810 810 809 808 808 807 807 806 806 805 805 804 804 803 803 803 802 802 801 801 800 800 799 799 798 798 798 797 797 796 796 795 795 794 794 793 793 792 792 791 790
806 806 806 807 807 808 808 809 810 811 812 812 813 813 813 813 813 813 812 812 812 812 812 812 811 811 811 810 809 809 808 808 807 806 806 805 805 804 804 804 803 803 803 802 802 801 801 800 799 799 798 798 798 797 797 796 796 796 795 795 794 794 793 793 792 792 791 790 790
805 805 806 806 807 808 809 809 810 811 811 812 812 812 812 812 812 812 812 812 811 811 811 811 811 810 810 809 809 808 808 807 806 806 805 805 804 804 803 803 803 802 802 801 801 801 800 799 799 798 798 797 797 796 796 795 795 795 794 794 793 793 793 792 791 791 790 790 789
804 805 806 807 807 808 809 809 810 811 811 811 812 812 812 811 811 811 811 811 811 811 811 810 810 810 809 809 808 808 807 806 806 805 804 804 803 803 803 802 802 802 801 801 800 800 799 799 798 798 797 797 796 795 795 794 794 793 793 793 792 792 791 791 791 790 790 789 789
804 805 806 807 808 808 809 810 810 811 811 811 811 811 811 811 811 810 810 810 810 810 810 810 809 809 808 808 808 807 806 806 805 804 804 803 803 802 802 801 801 801 800 800 800 799 799 798 798 797 796 796 795 794 794 793 793 793 792 792 791 791 790 790 789 789 789 788 788
805 805 806 807 808 808 809 810 810 810 811 811 811 811 810 810 810 810 810 810 810 810 810 809 809 808 808 807 807 806 806 805 804 804 803 803 802 802 801 801 800 800 799 799 799 798 798 797 797 796 795 795 794 793 793 792 792 791 791 790 790 789 789 789 788 788 788 787 787
805 806 807 808 808 809 809 810 810 810 811 811 811 810 810 809 809 809 809 809 809 809 809 809 808 808 807 807 806 806 805 804 804 803 803 802 802 801 800 800 799 799 798 798 798 797 797 796 795 795 794 794 793 793 792 791 790 790 789 789 788 788 788 788 787 787 786 786 786
806 807 807 808 808 809 809 810 810 810 810 810 810 810 809 809 809 809 809 809 809 809 809 808 808 808 807 806 806 805 804 804 803 803 802 802 801 800 800 799 798 798 798 797 796 796 795 794 794 794 793 793 792 792 791 790 789 789 788 788 787 787 786 786 786 785 785 785 784
806 807 808 808 808 809 809 810 810 810 810 810 809 809 809 808 808 808 808 809 809 809 808 808 808 807 807 806 805 804 803 803 802 802 802 801 801 800 799 799 798 797 797 796 796 795 794 794 793 793 792 792 791 791 790 789 788 788 787 786 786 785 785 785 784 784 784 783 783
807 807 808 808 808 809 809 809 809 809 809 809 809 809 808 808 808 808 808 808 808 808 808 808 807 807 806 805 805 804 803 802 802 801 800 800 800 799 799 798 798 797 796 796 795 795 794 793 793 792 792 791 790 790 789 788 788 787 786 785 785 784 783 783 783 783 783 782 782
807 807 808 808 808 808 809 809 809 809 809 809 808 808 808 808 808 808 808 808 808 808 807 807 807 806 806 805 804 803 803 802 801 800 800 799 799 798 798 798 797 797 796 795 795 794 793 793 793 792 791 790 790 789 788 788 787 786 785 785 784 783 783 782 781 781 781 781 780
807 807 807 808 808 808 808 808 808 808 808 808 808 808 808 807 807 807 807 807 807 807 807 806 806 805 805 804 803 803 802 801 800 800 799 798 798 798 797 797 796 796 795 795 794 793 793 792 792 791 790 790 789 788 787 787 786 785 785 784 783 783 782 781 780 780 779 779 779
806 807 807 807 807 807 808 808 808 808 808 808 808 807 807 807 807 807 807 807 806 806 806 805 805 804 804 803 803 802 801 800 799 799 798 798 797 797 796 796 796 795 795 794 793 793 792 791 790 790 789 789 788 787 787 786 785 784 784 783 782 782 781 780 779 779 778 778 778
806 806 806 806 806 807 807 807 807 807 807 807 807 807 807 807 806 806 806 806 805 805 804 804 803 803 803 802 802 801 800 799 799 798 797 797 796 796 796 795 795 794 794 793 793 792 791 790 789 789 788 788 787 786 786 785 784 784 783 782 782 781 780 779 779 778 778 777 776
805 805 805 805 805 805 806 806 806 806 806 806 806 806 806 806 806 805 805 805 804 804 803 803 802 802 801 801 800 800 799 798 798 797 796 796 795 795 794 794 794 793 793 792 792 791 790 789 788 788 787 787 786 785 785 784 783 783 782 781 781 780 779 779 778 777 777 776 775
804 804 804 804 804 804 804 805 805 805 805 805 805 805 805 805 804 804 804 803 803 803 802 802 801 801 800 799 799 798 798 797 797 796 795 794 794 793 793 793 793 792 792 791 791 790 789 788 787 787 786 785 785 784 783 783 783 782 781 780 780 779 778 778 777 776 776 775 774
803 803 803 803 803 803 803 804 804 804 804 804 804 804 804 803 803 803 803 802 802 801 801 800 800 799 799 798 798 797 797 796 795 795 794 793 793 792 792 792 791 791 790 790 789 789 788 787 786 785 785 784 783 783 782 782 781 781 780 779 779 778 778 777 776 776 775 774 773
802 802 802 802 802 802 803 803 803 803 803 803 803 803 803 802 802 802 802 801 800 800 799 799 798 798 797 797 796 796 795 795 794 794 793 793 792 791 790 790 790 789 789 789 788 788 787 786 785 784 784 783 782 781 781 780 780 779 778 778 778 777 777 776 775 775 774 773 773
800 800 801 801 801 801 802 802 802 802 802 802 802 801 801 801 801 801 800 800 799 798 798 798 797 797 796 796 795 795 794 793 793 793 792 791 791 790 789 788 788 788 788 788 787 786 786 785 784 783 783 782 781 780 779 779 778 778 777 777 776 776 775 775 774 773 773 772 772
799 799 800 800 800 800 801 801 801 801 801 800 800 800 800 800 800 799 799 798 798 797 797 796 796 795 795 794 794 793 793 792 792 791 791 790 789 788 788 787 787 787 787 786 786 785 784 784 783 782 781 780 779 778 778 777 777 776 775 775 774 774 773 773 773 772 772 771 770
798 798 799 799 799 799 799 799 799 799 799 799 799 799 799 799 798 798 798 797 797 796 796 795 795 794 793 793 793 792 792 791 790 790 789 789 788 787 786 785 785 785 785 785 784 784 783 783 782 781 780 779 778 777 776 776 775 774 774 773 773 772 772 772 771 770 770 769 769
797 797 798 798 798 798 798 798 798 798 798 798 798 798 798 798 797 797 797 796 795 795 794 794 793 793 792 792 791 791 790 790 789 788 788 788 787 786 785 784 783 783 783 783 783 782 782 781 780 780 779 778 777 776 775 774 773 773 772 772 771 771 770 770 769 769 768 768 767
796 796 796 797 797 797 797 797 797 797 797 797 797 797 797 796 796 796 795 795 794 793 793 793 792 792 791 790 790 789 789 788 788 787 787 786 785 785 783 782 782 782 782 782 781 781 780 780 779 778 778 776 775 774 773 773 772 771 771 770 769 769 768 768 768 767 767 766 766
795 795 795 795 796 796 796 796 796 796 796 796 796 796 795 795 795 794 794 794 793 793 792 791 791 790 790 789 789 788 788 787 787 786 785 784 784 783 782 781 780 780 780 780 780 779 779 778 778 777 776 775 774 773 772 772 771 770 769 769 768 767 767 767 766 766 765 764 764
794 794 794 794 794 795 795 795 795 795 795 795 794 794 794 794 793 793 793 793 792 792 791 790 789 789 789 788 787 787 786 785 785 785 784 783 782 782 781 780 779 778 778 778 778 778 777 777 776 775 775 774 773 772 771 770 769 768 768 767 767 766 765 764 764 764 763 763 762
793 793 793 793 793 793 793 793 793 794 794 793 793 793 793 793 792 792 792 791 791 790 789 789 788 788 787 787 786 785 784 783 783 783 782 782 781 780 779 778 778 777 777 777 777 776 775 775 774 774 773 772 771 771 770 769 768 767 766 766 765 764 764 763 762 762 762 761 760
Wind_Speed
8 8 8 7 7 6 6 6 6 6 6 6 6 7 7 7 6 7 7 8 8 8 8 7 6 6 5 5 5 5 5 5 6 6 7 7 8 8 9 10 10 11 12 12 13 13 14 15 16 17 18 19 19 20 20 21 22 22 23 23 24 24 24 25 25 25 25 24 24
7 7 7 7 7 7 7 7 7 6 6 6 6 6 7 7 7 7 7 8 8 8 8 7 6 6 5 5 5 5 5 5 5 5 5 6 7 7 8 9 10 10 11 11 12 13 13 14 15 16 17 18 19 19 20 21 22 22 23 23 24 24 24 25 25 25 25 25 25
7 7 7 7 7 7 7 6 6 6 6 6 6 6 6 6 7 7 8 8 8 8 7 7 6 5 5 4 5 5 5 5 5 5 5 5 6 6 7 8 9 9 10 11 11 11 12 13 14 15 16 17 18 19 20 21 22 23 23 24 24 24 25 25 25 25 24 25 25
6 6 6 6 6 6 6 6 5 5 5 5 5 5 5 6 7 7 8 8 8 7 7 6 5 5 4 4 4 4 5 5 5 5 4 5 5 6 6 7 8 8 9 10 10 11 11 11 12 13 14 15 16 17 18 20 21 22 23 24 24 25 25 25 25 25 24 24 25
5 5 5 5 5 5 5 5 4 4 4 4 4 4 4 5 6 6 7 7 6 6 6 5 5 4 4 3 3 3 4 4 4 4 4 4 5 5 6 6 7 8 9 9 10 10 10 10 11 12 13 14 15 15 16 18 19 20 22 23 24 25 25 25 25 25 25 24 24
4 4 4 4 4 4 4 4 3 3 3 3 3 3 4 4 5 5 5 5 5 5 5 5 4 4 4 3 3 3 3 3 4 4 4 4 4 5 5 6 7 8 8 9 9 9 10 10 10 11 11 12 13 14 15 16 17 18 19 21 23 24 25 25 25 25 25 25 25
3 3 3 3 3 2 2 2 2 2 2 3 3 3 3 3 4 4 4 4 4 4 4 4 4 4 4 4 4 4 3 3 3 3 3 3 4 4 5 6 7 7 8 8 9 9 9 10 10 10 11 11 12 13 13 14 15 16 17 19 20 22 23 24 25 25 25 25 25
3 2 2 2 1 1 1 1 1 1 1 1 1 2 2 3 3 3 3 3 3 4 4 4 5 5 5 5 4 4 4 3 3 3 3 3 3 4 5 6 6 7 7 8 8 9 9 10 10 10 11 12 12 12 13 13 14 14 15 17 18 19 20 21 23 23 24 25 25
3 2 2 2 2 2 2 2 1 1 1 1 2 3 3 3 3 3 3 3 4 5 5 5 5 5 5 5 5 5 4 3 3 3 3 3 4 4 5 6 6 7 7 8 8 9 9 9 10 10 11 12 12 13 13 13 14 14 15 15 16 17 18 19 20 21 23 24 24
4 3 3 3 3 3 3 2 2 2 2 3 4 4 4 4 5 5 5 5 6 6 6 6 6 6 5 5 5 5 4 4 3 3 4 4 5 5 6 6 7 7 8 8 9 9 9 10 10 10 11 12 12 13 14 14 14 15 15 15 16 16 16 17 18 20 21 22 23
5 4 4 4 4 3 3 3 3 3 3 4 5 5 5 6 6 7 7 7 7 7 7 7 6 6 6 5 5 5 5 5 4 5 5 5 6 6 7 7 8 8 9 9 10 10 11 11 11 12 12 12 13 14 14 15 15 16 16 16 16 16 16 17 17 18 19 20 21
6 6 5 4 4 3 3 3 3 4 4 5 5 6 6 7 8 8 8 8 8 8 8 8 7 7 6 6 6 6 6 6 6 6 7 7 7 8 8 9 9 9 10 10 11 11 12 12 13 13 14 14 14 15 15 16 16 17 17 17 17 17 17 17 17 17 18 19 19
7 7 6 5 4 4 4 4 4 4 4 5 6 7 7 8 8 9 9 9 9 9 9 9 8 8 8 8 8 8 8 8 8 8 9 9 9 9 10 10 10 11 11 11 12 13 13 14 14 15 15 15 16 16 16 17 17 17 18 18 18 18 17 17 17 17 17 18 18
7 7 6 5 4 4 4 4 4 4 5 6 7 7 8 8 9 9 9 9 10 10 10 10 10 10 10 10 10 10 10 10 10 10 11 11 11 11 11 11 11 12 12 12 13 14 14 15 15 16 16 16 17 17 17 17 17 18 18 18 18 18 18 17 17 17 17 17 17
7 6 6 5 5 4 4 4 4 4 5 6 7 7 8 8 9 9 9 9 10 10 10 10 11 11 11 11 11 11 12 12 12 12 12 12 12 12 12 12 13 13 13 13 14 14 15 15 16 16 17 17 17 17 17 18 18 18 18 18 18 18 18 18 17 17 17 17 17
6 6 6 5 5 5 5 4 4 5 5 6 6 7 8 8 9 9 9 10 10 10 10 11 11 11 11 12 12 12 12 12 13 13 13 13 13 14 14 14 14 14 15 15 15 15 16 16 16 16 17 17 17 17 17 18 18 18 18 18 18 18 18 18 18 18 17 17 17
7 7 6 6 6 5 5 5 5 5 5 6 6 7 7 8 8 9 9 10 10 10 10 11 11 11 12 12 12 12 12 13 13 13 14 14 15 15 15 15 16 16 16 16 16 16 16 17 17 17 17 17 17 17 17 17 17 17 17 17 18 18 18 18 18 18 18 18 17
7 7 7 6 6 6 5 5 5 5 5 6 6 7 7 8 8 9 9 10 10 10 11 11 11 12 12 12 12 13 13 13 13 14 14 15 15 15 16 16 16 17 17 17 17 17 17 17 17 17 16 16 16 16 16 16 16 16 17 17 17 18 18 18 18 19 19 19 18
8 7 7 6 6 6 5 5 5 5 5 6 6 7 7 8 8 9 9 10 10 11 11 11 11 11 11 12 12 12 13 13 13 13 14 14 15 15 16 16 16 17 17 17 17 17 17 17 17 16 16 16 15 15 15 15 15 16 16 16 17 17 18 18 18 19 19 19 19
8 7 7 6 6 5 5 5 5 5 5 5 6 6 7 7 8 8 9 10 10 11 11 11 11 11 11 11 11 12 12 12 13 13 13 14 14 15 15 16 16 16 17 17 17 17 17 17 17 16 16 16 15 15 15 15 15 15 16 16 16 17 17 18 18 18 19 19 19
8 7 7 6 6 5 5 5 5 5 5 5 6 6 6 7 7 8 9 10 10 11 11 11 11 11 11 11 12 12 12 12 13 13 13 14 14 14 15 15 16 16 16 17 17 17 18 18 17 17 17 17 16 16 16 16 16 16 16 16 17 17 17 18 18 18 19 19 19
8 7 7 6 5 5 5 5 5 5 5 5 6 6 6 6 7 8 8 9 10 10 11 11 11 12 12 12 12 12 12 13 13 13 14 14 14 14 15 15 16 16 17 17 18 18 18 18 18 18 18 18 18 18 18 17 17 18 18 18 18 18 18 18 18 19 19 19 19
8 7 7 6 5 5 5 5 5 5 6 6 6 6 6 6 7 7 8 9 10 10 11 11 12 12 12 13 13 13 14 14 14 14 14 14 15 15 15 16 16 17 17 18 19 19 19 20 20 20 19 19 19 19 19 19 19 19 19 19 19 19 19 19 19 19 19 19 19
8 8 7 6 6 5 5 5 5 5 6 6 6 7 7 7 7 8 8 9 10 11 11 12 12 13 13 13 14 14 15 15 15 15 15 15 15 16 16 17 17 17 18 18 19 19 20 20 20 20 20 20 20 20 20 19 19 20 20 20 20 20 20 20 20 20 20 20 20
8 7 7 6 6 5 5 5 5 6 6 7 7 7 7 8 8 9 9 10 11 11 12 12 13 13 14 14 14 15 15 16 16 16 16 16 16 17 17 17 18 18 18 19 19 19 19 19 19 19 19 20 20 20 20 20 20 20 20 21 21 21 21 21 21 21 21 21 21
7 7 6 6 6 5 5 6 6 7 7 7 8 8 8 9 9 10 10 11 12 12 13 13 14 14 14 15 15 15 15 16 16 17 17 18 18 18 18 18 19 19 19 19 19 19 19 19 18 18 19 19 20 20 21 21 21 21 21 21 21 21 22 22 22 22 22 22 22
6 6 5 5 5 5 6 6 7 7 8 8 8 9 9 9 10 11 11 12 13 13 14 14 14 15 15 16 16 16 16 16 17 17 17 18 18 19 19 19 19 20 20 20 20 20 20 20 19 18 18 19 20 20 21 21 21 21 21 21 21 22 22 22 23 23 23 23 23
5 5 5 5 5 6 6 7 7 8 9 9 9 10 10 10 11 11 12 13 14 14 15 15 15 16 16 16 16 16 16 16 17 17 17 18 18 19 19 20 20 20 20 21 21 21 20 20 20 19 19 19 19 20 20 21 21 21 21 21 22 22 22 22 23 23 24 24 24
4 4 4 5 5 6 7 7 8 9 9 10 10 10 11 11 11 12 13 14 15 15 16 16 16 16 16 16 17 17 17 17 17 17 17 18 18 19 19 20 20 21 21 21 21 21 21 21 20 20 19 19 19 19 20 20 21 21 21 21 21 22 22 22 23 23 24 24 24
4 4 4 5 6 6 7 8 9 9 10 10 10 11 11 11 12 12 13 14 15 16 16 17 17 17 17 17 17 17 17 17 17 17 17 17 18 19 19 20 20 21 21 21 22 21 21 21 21 20 20 19 19 19 19 20 20 20 21 21 21 21 21 22 22 23 23 24 24
3 3 4 5 5 6 7 8 9 9 10 10 11 11 11 11 12 13 14 14 15 16 16 17 17 18 18 18 18 18 18 18 17 17 17 18 18 19 20 20 21 21 22 22 22 22 21 21 21 21 20 19 19 19 19 20 20 20 20 20 21 21 21 21 22 22 23 23 23
2 2 3 4 5 6 7 8 9 9 10 10 10 11 11 11 12 13 13 14 15 16 16 17 18 18 19 19 19 19 18 18 18 18 18 18 19 19 20 21 21 21 22 22 22 22 22 21 21 21 20 19 19 19 20 20 20 20 20 20 20 20 20 20 21 21 22 22 22
1 2 3 4 5 6 7 7 8 9 9 9 9 10 10 11 12 12 13 14 15 16 16 17 18 18 19 19 19 19 19 18 18 18 18 18 19 20 20 21 21 22 22 22 22 22 22 22 21 21 20 19 19 19 20 20 20 20 20 20 19 19 19 19 20 20 21 21 21
2 2 3 4 5 5 6 7 8 8 9 9 9 9 10 11 11 12 13 14 15 15 16 16 17 18 18 18 19 19 19 19 19 19 19 19 19 20 21 21 21 22 22 22 23 23 23 22 22 21 20 20 20 20 20 20 20 20 20 19 19 19 19 19 19 19 20 20 21
2 3 3 4 5 5 6 7 8 8 9 9 9 9 10 11 11 12 13 14 15 15 16 16 17 17 18 18 18 19 19 19 19 19 19 20 20 21 22 22 22 22 22 22 23 23 23 23 23 22 21 21 21 21 21 20 20 20 19 19 19 19 19 19 19 19 19 20 20
3 4 4 4 5 6 7 7 8 9 9 10 10 10 10 11 12 12 13 14 15 16 16 17 17 18 18 18 19 19 19 20 20 20 20 21 21 22 23 23 23 23 22 23 23 24 24 24 24 23 22 22 22 22 21 20 20 20 19 19 19 19 19 19 19 19 19 19 20
4 4 4 5 6 6 7 8 9 9 10 10 10 11 11 12 12 13 14 14 15 16 17 17 18 18 18 19 19 20 20 20 21 21 21 21 22 22 23 24 24 24 23 23 24 24 24 24 24 24 23 23 22 22 21 20 20 20 20 20 20 20 20 20 20 20 19 19 19
4 4 5 6 6 7 8 9 9 10 10 11 11 11 12 12 13 13 14 15 16 17 18 18 18 19 19 19 19 20 20 20 21 21 22 22 22 23 24 25 25 25 24 24 24 24 25 25 24 24 23 22 22 21 21 20 20 20 20 20 20 21 20 20 20 20 20 20 20
4 4 5 6 7 8 8 9 9 10 10 11 11 11 12 13 13 14 15 15 16 17 18 18 19 19 19 19 19 20 20 20 21 21 22 22 22 23 24 25 26 25 25 24 24 25 24 24 24 24 23 22 21 21 20 20 20 20 21 21 21 21 21 20 20 20 20 20 20
4 5 6 7 7 8 9 9 9 10 10 11 11 12 12 13 14 15 16 16 17 17 18 18 18 18 18 18 18 19 20 21 20 21 21 22 23 23 23 24 26 26 25 25 25 25 25 24 24 23 22 21 21 20 19 19 20 21 21 21 21 22 22 21 20 20 21 21 21
4 5 6 7 8 8 9 9 9 10 10 11 11 12 13 14 15 16 16 16 17 17 17 17 17 17 17 17 18 19 20 21 21 21 21 22 23 23 24 24 26 26 26 26 26 25 25 25 24 23 22 21 20 19 19 19 20 21 22 22 21 22 22 22 22 22 22 22 22
Wind_Direction
240 247 253 255 256 256 255 257 260 263 268 273 280 286 291 296 300 300 300 300 301 303 307 312 318 325 332 335 337 339 341 342 343 345 345 346 346 348 350 351 352 354 356 359 1 3 5 6 8 10 12 13 15 16 17 18 19 19 18 17 16 14 13 12 10 9 8 7 6
245 253 257 259 260 258 255 254 256 260 264 270 276 282 288 292 295 296 296 297 298 301 304 310 315 322 329 332 333 335 338 341 344 346 345 344 344 345 347 349 350 351 354 356 359 2 3 4 5 7 8 9 11 13 14 15 16 16 16 16 15 14 13 12 10 8 7 5 4
244 251 255 256 255 253 249 247 251 256 263 270 276 282 286 290 292 294 295 296 298 300 303 307 312 318 326 331 331 331 334 339 344 347 347 345 344 344 346 348 350 351 353 356 359 1 3 4 4 5 5 6 8 10 12 13 13 13 13 13 13 12 12 11 10 8 7 5 3
236 240 243 244 244 243 244 246 251 256 262 268 275 281 284 287 290 292 293 295 297 298 300 304 309 315 320 326 328 329 330 334 341 346 348 348 346 347 348 350 352 353 355 357 360 2 4 4 5 4 4 4 6 8 10 11 11 10 10 9 9 10 9 9 8 7 6 5 4
219 226 232 235 239 242 247 249 253 255 259 263 267 271 276 280 285 288 292 293 294 295 297 300 305 308 311 314 316 319 323 328 335 341 347 350 351 352 354 355 356 357 358 360 1 3 4 6 6 5 4 3 4 6 8 10 10 10 8 7 6 6 6 6 5 5 5 4 3
204 216 228 234 240 245 248 251 250 249 252 253 253 258 267 274 281 286 289 291 291 292 294 295 296 298 299 299 299 302 309 318 326 334 342 350 354 357 360 1 360 359 0 2 3 4 5 5 6 6 5 4 3 4 6 9 10 9 8 7 5 4 3 3 2 2 2 2 2
193 205 217 226 234 240 241 242 235 236 243 249 251 260 272 282 288 289 290 290 288 287 287 288 289 287 287 287 287 289 296 305 316 325 336 348 355 360 3 3 2 360 359 0 1 2 3 4 5 5 4 3 3 2 4 6 8 9 8 8 6 4 2 0 359 358 359 359 0
176 183 188 192 193 189 181 174 181 208 237 263 283 304 314 314 310 307 302 295 290 288 289 289 288 287 285 284 285 286 289 296 306 318 330 342 351 356 359 359 359 356 356 356 356 358 359 0 1 2 2 1 1 0 1 3 5 6 7 7 6 5 2 359 357 356 356 356 357
142 144 147 145 147 143 140 135 133 110 28 7 5 360 351 342 335 327 321 314 307 303 301 298 296 294 292 290 288 289 292 294 302 314 325 333 339 345 348 350 351 350 349 348 349 351 352 354 357 358 359 358 358 357 357 359 1 3 4 4 4 3 1 358 356 354 353 354 355
115 117 122 128 127 124 118 108 89 58 34 24 17 8 358 348 340 335 330 326 320 316 312 309 306 304 301 298 296 297 300 303 307 314 321 326 330 334 336 338 339 339 339 340 341 342 343 345 348 352 354 354 355 354 354 355 357 359 0 0 360 359 358 356 354 353 352 352 352
109 111 114 115 112 109 100 85 65 45 30 20 10 2 352 344 339 336 334 330 327 324 321 318 316 313 311 308 307 308 309 311 312 315 317 320 324 326 328 329 330 330 331 332 334 335 336 337 340 343 347 349 350 350 350 351 352 354 356 356 356 356 354 353 352 351 350 349 349
106 107 108 105 102 96 85 69 52 36 21 9 358 348 343 341 339 338 336 334 332 330 327 326 324 321 319 319 318 316 316 316 316 316 317 318 321 323 324 325 326 326 327 328 330 332 333 334 335 337 340 342 344 345 346 347 348 349 350 351 352 352 352 351 350 349 348 347 346
102 102 101 97 92 83 71 57 41 24 8 355 346 341 340 340 339 339 339 338 336 335 333 331 329 327 326 326 325 324 323 321 321 320 319 320 322 323 324 325 325 325 326 328 330 331 332 333 334 335 336 338 340 341 342 343 343 344 344 345 347 348 349 349 348 347 346 345 344
100 98 93 87 80 70 59 48 30 10 355 346 340 339 339 341 340 341 341 341 339 338 337 335 333 332 331 331 330 330 329 328 327 326 326 326 326 327 328 328 328 328 329 330 332 332 333 334 334 335 335 336 337 337 338 339 340 340 340 340 341 343 345 346 346 346 345 344 343
97 90 83 74 65 56 47 35 18 2 351 346 342 341 342 343 343 343 343 343 342 340 338 336 336 335 335 334 334 334 334 333 333 332 332 332 333 333 334 333 333 332 332 333 333 334 334 334 334 334 334 334 334 335 335 335 336 336 336 336 336 337 339 342 343 344 344 344 342
89 81 71 63 55 48 40 30 17 7 359 355 350 348 348 347 346 346 345 344 343 341 339 337 337 337 337 337 336 337 337 337 337 337 337 337 337 337 337 336 336 335 334 334 333 333 333 333 333 333 333 332 332 331 331 331 331 331 331 331 331 332 333 336 338 340 341 342 342
81 72 66 59 54 49 43 36 25 18 10 4 359 356 353 351 350 348 346 344 343 341 340 338 337 337 337 337 337 337 338 338 338 338 339 339 338 338 337 337 336 335 334 333 332 331 331 331 330 330 329 329 328 328 327 327 326 326 326 326 326 327 328 330 332 334 336 339 340
75 69 64 60 56 51 45 38 29 21 14 8 2 358 354 352 351 349 347 344 342 340 339 338 337 336 336 336 336 336 337 337 338 338 338 338 337 337 336 335 335 333 332 331 330 330 329 328 328 327 326 325 325 324 323 323 323 322 322 323 323 324 325 326 327 329 331 334 336
72 68 64 59 54 49 42 33 25 17 10 4 359 355 352 351 350 349 346 343 341 340 339 337 336 335 335 336 336 336 336 337 337 337 337 337 336 335 334 334 333 333 332 331 330 329 329 328 327 326 325 325 324 323 322 322 322 321 321 322 323 323 324 324 325 326 327 329 331
69 65 60 55 49 43 35 26 18 10 4 359 354 351 350 349 348 347 345 343 341 339 337 336 335 335 335 335 336 336 336 337 337 337 336 336 335 335 334 333 333 333 332 331 331 330 330 329 329 329 329 328 328 327 326 325 324 324 324 324 324 324 325 325 325 325 325 326 328
65 61 56 50 44 36 28 18 10 3 356 352 348 347 347 346 346 345 343 341 338 336 335 334 334 334 335 335 336 337 337 337 337 336 336 336 335 334 334 334 333 333 332 332 332 332 332 332 334 334 335 335 334 333 332 331 329 328 327 327 326 326 326 325 325 325 325 326 326
62 58 52 46 38 29 18 9 360 353 347 343 341 341 342 342 343 342 340 337 334 332 331 330 331 332 333 334 334 334 335 335 335 334 334 334 334 334 333 333 333 332 332 333 333 333 334 336 338 339 339 339 338 336 335 334 332 331 330 329 328 327 326 326 325 325 325 325 325
61 56 50 43 34 23 13 1 352 344 338 336 335 335 336 337 337 336 334 331 329 327 326 326 327 328 329 330 330 330 330 330 330 331 331 331 331 331 331 331 331 332 332 332 333 334 336 338 339 340 340 339 337 336 334 333 332 331 330 329 329 328 327 326 325 325 324 324 324
59 55 49 42 33 22 10 359 347 339 334 333 332 333 333 332 330 328 327 325 324 322 322 323 324 325 325 326 326 326 327 327 327 327 327 328 328 328 328 329 329 330 330 331 332 334 336 338 338 338 337 336 334 332 331 331 330 330 330 329 328 327 327 326 325 325 324 324 324
58 53 48 41 33 23 10 359 350 343 338 335 334 333 333 331 328 326 324 323 322 321 321 321 322 322 322 323 323 324 324 324 325 325 325 325 325 325 325 326 326 327 327 328 328 330 332 334 335 335 334 332 330 328 328 328 328 328 328 328 327 326 326 325 325 325 324 324 323
58 52 46 39 30 21 11 2 355 348 343 339 337 336 335 333 330 328 326 324 323 322 322 322 322 322 321 322 322 322 322 323 324 324 324 323 323 323 323 323 323 324 324 324 325 325 326 328 330 331 330 328 326 325 324 324 325 325 325 325 325 325 324 324 324 323 323 323 323
57 49 42 32 23 16 9 1 355 350 346 342 340 339 336 334 331 329 327 325 324 323 322 322 323 323 323 323 322 322 323 323 323 323 323 322 322 322 321 321 321 321 321 322 322 322 323 323 325 326 326 326 324 322 322 321 321 321 321 322 322 322 322 322 322 322 322 322 322
54 43 32 22 15 9 3 357 353 350 346 343 341 339 336 334 331 329 328 326 324 323 323 324 325 325 325 325 324 324 324 324 324 323 322 321 321 320 320 320 320 320 320 321 321 321 322 322 322 323 324 324 323 321 319 319 318 318 318 318 318 318 319 319 319 319 319 319 319
52 36 21 12 7 2 356 353 351 349 346 343 341 338 336 334 332 331 329 328 328 328 328 328 328 327 328 328 327 327 326 326 325 323 322 321 319 319 318 319 319 319 319 320 321 322 322 322 322 323 323 323 322 321 319 317 316 315 315 314 314 315 315 315 316 316 316 317 317
48 29 13 4 359 355 353 350 349 347 345 343 341 339 337 335 334 333 333 332 332 333 333 332 331 331 331 331 330 329 329 328 326 324 323 321 319 318 318 318 318 318 319 320 320 322 323 323 323 323 324 323 323 321 319 316 315 313 312 311 311 311 311 312 312 313 314 315 315
41 18 3 355 351 349 348 347 345 344 343 341 340 338 337 337 336 336 335 335 334 334 333 332 332 332 331 331 330 330 329 328 326 325 323 321 319 318 318 318 318 318 319 319 320 321 322 323 323 323 324 324 323 321 318 316 314 312 310 309 308 308 308 308 308 309 311 312 314
24 360 348 345 345 343 343 342 341 340 338 338 337 336 336 335 335 334 334 333 332 332 331 331 331 330 329 329 328 328 327 326 325 323 322 321 319 317 317 316 316 317 318 318 319 320 321 321 322 322 323 323 322 320 317 315 313 311 309 307 306 305 305 305 305 306 307 310 312
349 335 332 335 337 338 337 336 335 334 333 332 332 332 331 330 330 330 330 329 329 329 329 329 329 328 328 328 327 325 324 322 321 320 319 318 317 315 314 314 314 315 316 317 317 318 319 319 320 321 322 322 320 318 316 314 313 311 308 306 304 303 302 302 303 304 305 307 309
305 306 312 320 326 329 329 328 328 327 326 326 326 327 327 326 326 326 327 326 325 325 325 325 325 325 325 324 324 323 321 319 318 317 316 315 314 313 311 310 311 312 313 314 315 315 316 316 317 319 319 319 318 316 315 314 312 310 308 306 304 302 301 301 301 301 303 305 307
276 284 295 306 315 321 322 322 321 321 320 320 321 322 322 322 322 323 324 323 321 321 320 320 319 319 319 320 320 319 319 318 316 315 314 313 312 311 309 308 308 309 310 311 312 312 313 314 315 316 317 317 316 315 314 313 312 310 309 306 304 303 301 300 300 301 302 303 306
260 274 286 299 310 316 317 317 316 315 315 315 316 316 317 318 319 319 320 319 318 317 317 316 315 315 316 317 317 317 317 317 315 313 312 311 311 310 308 306 306 306 307 308 309 310 311 311 313 314 315 315 315 314 314 313 311 310 308 307 305 303 302 302 301 301 302 303 305
255 271 287 300 308 313 314 313 312 311 311 311 311 311 311 312 313 314 315 316 315 314 314 313 313 313 315 316 315 315 314 314 313 312 311 310 310 309 308 306 305 306 306 307 308 308 309 309 310 312 313 314 314 313 313 312 311 310 308 307 305 303 303 303 303 303 303 303 304
255 274 290 299 306 308 308 307 306 305 305 305 305 305 306 307 308 309 311 312 311 311 311 311 310 311 312 313 312 312 311 312 312 311 311 310 310 309 309 307 306 306 306 307 307 307 308 308 309 310 312 313 313 312 312 312 311 309 308 306 305 304 303 303 303 303 303 302 303
260 278 290 296 299 301 300 299 299 299 300 300 300 300 301 302 303 305 306 307 307 307 308 308 308 309 311 311 311 310 310 310 310 310 310 310 310 310 310 309 308 307 307 307 307 307 308 308 309 310 311 312 312 312 311 311 309 307 306 305 305 304 304 304 304 303 302 301 301
266 278 285 289 292 293 293 292 293 294 295 296 296 298 299 299 300 302 303 303 303 304 305 306 306 308 309 309 309 309 309 309 310 310 310 310 311 310 310 309 308 308 307 307 307 308 308 308 309 310 311 312 311 311 310 308 306 304 303 303 304 304 304 304 304 303 302 301 300
271 277 281 283 286 288 289 290 291 292 293 293 295 297 298 299 299 300 301 302 302 302 303 304 305 306 307 307 307 308 308 309 309 310 310 310 310 310 309 309 308 307 307 307 307 308 308 309 310 311 311 311 310 309 306 304 302 300 300 301 302 303 303 304 304 303 301 301 300